Time,TemperatureF,DewpointF,PressureIn,WindDirection,WindDirectionDegrees,WindSpeedMPH,WindSpeedGustMPH,Humidity,HourlyPrecipIn,Conditions,Clouds,dailyrainin,SoftwareType,DateUTC
2013-05-19 00:22:00,40.0,-99.9,-100.00,North,-999,-999.0,-999.0,-999,0.00,,,1.12,,2013-05-19 06:22:00,
2013-05-19 00:32:00,40.0,-99.9,-100.00,North,-999,-999.0,-999.0,-999,0.00,,,1.12,,2013-05-19 06:32:00,
2013-05-19 00:42:00,40.0,-99.9,-100.00,North,-999,-999.0,-999.0,-999,0.00,,,1.12,,2013-05-19 06:42:00,
2013-05-19 01:22:00,41.0,-99.9,-100.00,North,-999,-999.0,-999.0,-999,-99.99,,,1.10,,2013-05-19 07:22:00,
2013-05-19 01:32:00,41.0,-99.9,-100.00,North,-999,-999.0,-999.0,-999,-99.99,,,1.10,,2013-05-19 07:32:00,
2013-05-19 01:42:00,41.0,-99.9,-100.00,North,-999,-999.0,-999.0,-999,-99.99,,,1.10,,2013-05-19 07:42:00,
2013-05-19 03:22:00,40.0,-99.9,-100.00,North,-999,-999.0,-999.0,-999,-99.99,,,1.11,,2013-05-19 09:22:00,
2013-05-19 03:33:00,40.0,-99.9,-100.00,North,-999,-999.0,-999.0,-999,-99.99,,,1.11,,2013-05-19 09:33:00,
2013-05-19 03:43:00,40.0,-99.9,-100.00,North,-999,-999.0,-999.0,-999,-99.99,,,1.11,,2013-05-19 09:43:00,
2013-05-19 05:22:00,40.0,-99.9,-100.00,North,-999,-999.0,-999.0,-999,-99.99,,,1.11,,2013-05-19 11:22:00,
2013-05-19 05:32:00,40.0,-99.9,-100.00,North,-999,-999.0,-999.0,-999,-99.99,,,1.11,,2013-05-19 11:32:00,
2013-05-19 05:42:00,40.0,-99.9,-100.00,North,-999,-999.0,-999.0,-999,-99.99,,,1.11,,2013-05-19 11:42:00,
2013-05-19 06:22:00,39.0,-99.9,-100.00,North,-999,-999.0,-999.0,-999,0.03,,,1.09,,2013-05-19 12:22:00,
2013-05-19 06:32:00,39.0,-99.9,-100.00,North,-999,-999.0,-999.0,-999,0.03,,,1.09,,2013-05-19 12:32:00,
2013-05-19 06:42:00,39.0,-99.9,-100.00,North,-999,-999.0,-999.0,-999,0.03,,,1.09,,2013-05-19 12:42:00,
2013-05-19 07:22:00,39.0,-99.9,-100.00,North,-999,-999.0,-999.0,-999,0.02,,,1.06,,2013-05-19 13:22:00,
2013-05-19 07:32:00,39.0,-99.9,-100.00,North,-999,-999.0,-999.0,-999,0.02,,,1.06,,2013-05-19 13:32:00,
2013-05-19 07:42:00,39.0,-99.9,-100.00,North,-999,-999.0,-999.0,-999,0.02,,,1.06,,2013-05-19 13:42:00,
2013-05-19 08:22:00,39.0,-99.9,-100.00,North,-999,-999.0,-999.0,-999,0.01,,,0.97,,2013-05-19 14:22:00,
2013-05-19 08:32:00,39.0,-99.9,-100.00,North,-999,-999.0,-999.0,-999,0.01,,,0.97,,2013-05-19 14:32:00,
2013-05-19 08:42:00,39.0,-99.9,-100.00,North,-999,-999.0,-999.0,-999,0.01,,,0.97,,2013-05-19 14:42:00,
2013-05-19 09:22:00,40.0,-99.9,-100.00,North,-999,-999.0,-999.0,-999,0.02,,,0.81,,2013-05-19 15:22:00,
2013-05-19 09:33:00,40.0,-99.9,-100.00,North,-999,-999.0,-999.0,-999,0.02,,,0.81,,2013-05-19 15:33:00,
2013-05-19 09:43:00,40.0,-99.9,-100.00,North,-999,-999.0,-999.0,-999,0.02,,,0.81,,2013-05-19 15:43:00,
2013-05-19 10:24:00,42.0,-99.9,-100.00,North,-999,-999.0,-999.0,-999,0.06,,,0.80,,2013-05-19 16:24:00,
2013-05-19 10:33:00,42.0,-99.9,-100.00,North,-999,-999.0,-999.0,-999,0.06,,,0.80,,2013-05-19 16:33:00,
2013-05-19 10:42:00,42.0,-99.9,-100.00,North,-999,-999.0,-999.0,-999,0.06,,,0.80,,2013-05-19 16:42:00,
2013-05-19 11:22:00,42.0,-99.9,-100.00,North,-999,-999.0,-999.0,-999,0.06,,,0.74,,2013-05-19 17:22:00,
2013-05-19 11:32:00,42.0,-99.9,-100.00,North,-999,-999.0,-999.0,-999,0.06,,,0.74,,2013-05-19 17:32:00,
2013-05-19 11:43:00,42.0,-99.9,-100.00,North,-999,-999.0,-999.0,-999,0.06,,,0.74,,2013-05-19 17:43:00,
2013-05-19 12:22:00,42.0,-99.9,-100.00,North,-999,-999.0,-999.0,-999,0.06,,,0.69,,2013-05-19 18:22:00,
2013-05-19 12:32:00,42.0,-99.9,-100.00,North,-999,-999.0,-999.0,-999,0.06,,,0.69,,2013-05-19 18:32:00,
2013-05-19 12:43:00,42.0,-99.9,-100.00,North,-999,-999.0,-999.0,-999,0.06,,,0.69,,2013-05-19 18:43:00,
2013-05-19 14:22:00,42.0,-99.9,-100.00,North,-999,-999.0,-999.0,-999,-99.99,,,-99.99,,2013-05-19 20:22:00,
2013-05-19 14:32:00,42.0,-99.9,-100.00,North,-999,-999.0,-999.0,-999,-99.99,,,-99.99,,2013-05-19 20:32:00,
2013-05-19 14:42:00,42.0,-99.9,-100.00,North,-999,-999.0,-999.0,-999,-99.99,,,-99.99,,2013-05-19 20:42:00,
2013-05-19 15:22:00,43.0,-99.9,-100.00,North,-999,-999.0,-999.0,-999,0.07,,,0.64,,2013-05-19 21:22:00,
2013-05-19 15:33:00,43.0,-99.9,-100.00,North,-999,-999.0,-999.0,-999,0.07,,,0.64,,2013-05-19 21:33:00,
2013-05-19 15:43:00,43.0,-99.9,-100.00,North,-999,-999.0,-999.0,-999,0.07,,,0.64,,2013-05-19 21:43:00,
2013-05-19 16:23:00,42.0,-99.9,-100.00,North,-999,-999.0,-999.0,-999,0.09,,,0.73,,2013-05-19 22:23:00,
2013-05-19 16:33:00,42.0,-99.9,-100.00,North,-999,-999.0,-999.0,-999,0.09,,,0.73,,2013-05-19 22:33:00,
2013-05-19 16:43:00,42.0,-99.9,-100.00,North,-999,-999.0,-999.0,-999,0.09,,,0.73,,2013-05-19 22:43:00,
2013-05-19 17:22:00,42.0,-99.9,-100.00,North,-999,-999.0,-999.0,-999,0.13,,,-99.99,,2013-05-19 23:22:00,
2013-05-19 17:32:00,42.0,-99.9,-100.00,North,-999,-999.0,-999.0,-999,0.13,,,-99.99,,2013-05-19 23:32:00,
2013-05-19 17:42:00,42.0,-99.9,-100.00,North,-999,-999.0,-999.0,-999,0.13,,,-99.99,,2013-05-19 23:42:00,
2013-05-19 18:22:00,41.0,-99.9,-100.00,North,-999,-999.0,-999.0,-999,0.18,,,0.89,,2013-05-20 00:22:00,
2013-05-19 18:32:00,41.0,-99.9,-100.00,North,-999,-999.0,-999.0,-999,0.18,,,0.89,,2013-05-20 00:32:00,
2013-05-19 18:42:00,41.0,-99.9,-100.00,North,-999,-999.0,-999.0,-999,0.18,,,0.89,,2013-05-20 00:42:00,
2013-05-19 19:22:00,42.0,-99.9,-100.00,North,-999,-999.0,-999.0,-999,0.05,,,0.91,,2013-05-20 01:22:00,
2013-05-19 19:32:00,42.0,-99.9,-100.00,North,-999,-999.0,-999.0,-999,0.05,,,0.91,,2013-05-20 01:32:00,
2013-05-19 19:42:00,42.0,-99.9,-100.00,North,-999,-999.0,-999.0,-999,0.05,,,0.91,,2013-05-20 01:42:00,
2013-05-19 21:22:00,42.0,-99.9,-100.00,North,-999,-999.0,-999.0,-999,-99.99,,,0.91,,2013-05-20 03:22:00,
2013-05-19 21:33:00,42.0,-99.9,-100.00,North,-999,-999.0,-999.0,-999,-99.99,,,0.91,,2013-05-20 03:33:00,
2013-05-19 21:43:00,42.0,-99.9,-100.00,North,-999,-999.0,-999.0,-999,-99.99,,,0.91,,2013-05-20 03:43:00,
2013-05-19 22:23:00,42.0,-99.9,-100.00,North,-999,-999.0,-999.0,-999,0.01,,,0.92,,2013-05-20 04:23:00,
2013-05-19 22:33:00,42.0,-99.9,-100.00,North,-999,-999.0,-999.0,-999,0.01,,,0.92,,2013-05-20 04:33:00,
2013-05-19 22:43:00,42.0,-99.9,-100.00,North,-999,-999.0,-999.0,-999,0.01,,,0.92,,2013-05-20 04:43:00,
2013-05-19 23:22:00,41.0,-99.9,-100.00,North,-999,-999.0,-999.0,-999,0.00,,,0.92,,2013-05-20 05:22:00,
2013-05-19 23:32:00,41.0,-99.9,-100.00,North,-999,-999.0,-999.0,-999,0.00,,,0.92,,2013-05-20 05:32:00,
2013-05-19 23:43:00,41.0,-99.9,-100.00,North,-999,-999.0,-999.0,-999,0.00,,,0.92,,2013-05-20 05:43:00,